Location: Julian California
(33.0790°N, 116.6010°W)
Time: 14:17:18
(UTC-08:00)

Meteor 2-4 Rocket - Pass Details

Date: 19 May 2017
Orbit: 798 x 909 km, 81.2° (Epoch: 18 December)

Event Time Altitude Azimuth Distance (km) Brightness Sun altitude
Exits shadow 22:17:02 43° 219° (SW) 1,155 4.2 -26.5°
Maximum altitude 22:18:42 63° 279° (W) 934 4.0 -26.7°
Drops below altitude 10° 22:24:20 10° 1° (N) 2,507 6.8 -27.4°
Sets 22:26:50 0° 5° (N) 3,465 7.6 -27.7°
